This demonstration page uses our WeatherBlox Daily Observations layout. Learn more.

39.92423, -83.80882

Hourly Observations for November 23, 2020

Temp ( °F °C ) Dew Point ( °F °C ) Humidity (%) Winds ( mph kmh ) Pressure ( in mb ) Visibility ( mi km ) Precip ( " mm )
12:56 am 00:56 Cloudy 36 2.2 36 2.2 100 100 WNW 10 17 30.24 1024 10 16.0934 0 0
1:47 am 01:47 Cloudy 36 2 36 2 100 100 W 8 13 30.26 1025 10 16.0934 0 0
1:56 am 01:56 Cloudy 35 1.7 35 1.7 100 100 W 8 13 30.24 1024 10 16.0934 0 0
2:04 am 02:04 Cloudy 36 2 36 2 100 100 W 6 9 30.26 1025 10 16.0934 0 0
2:56 am 02:56 Mostly Cloudy 33 0.6 33 0.6 100 100 WSW 5 7 30.25 1025 10 16.0934 0 0
3:05 am 03:05 Partly Cloudy 34 1 34 1 100 100 WSW 3 6 30.28 1025 10 16.0934 0 0
3:16 am 03:16 Mostly Cloudy 34 1 34 1 100 100 SW 5 7 30.28 1025 10 16.0934 0 0
3:56 am 03:56 Cloudy 34 1.1 34 1.1 100 100 SSW 5 7 30.26 1025 10 16.0934 0 0
4:23 am 04:23 Cloudy 36 2 36 2 100 100 SSW 3 6 30.28 1025 10 16.0934 0 0
4:56 am 04:56 Cloudy 36 2.2 36 2.2 100 100 SW 6 9 30.27 1025 10 16.0934 0 0
5:56 am 05:56 Cloudy 36 2.2 36 2.2 100 100 SW 9 15 30.27 1025 10 16.0934 0 0
6:11 am 06:11 Cloudy 36 2 36 2 100 100 SW 8 13 30.29 1026 10 16.0934 0 0
6:52 am 06:52 Cloudy 37 3 37 3 100 100 SW 7 11 30.28 1025 8 12.87472 0 0
6:56 am 06:56 Cloudy 37 2.8 37 2.8 100 100 SW 7 11 30.27 1025 8 12.87472 0 0
7:56 am 07:56 Cloudy with Mist and Fog 38 3.3 38 3.3 100 100 SW 8 13 30.28 1026 6 9.65604 0 0
8:17 am 08:17 Partly Cloudy with Mist and Fog 37 3 37 3 100 100 SW 10 17 30.29 1026 6 9.65604 0 0
8:56 am 08:56 Mostly Cloudy 40 4.4 40 4.4 100 100 WSW 9 15 30.29 1026 7 11.26538 0 0
9:24 am 09:24 Cloudy 41 5 39 4 93 93 W 12 19 30.3 1026 9 14.48406 0 0
9:41 am 09:41 Cloudy 41 5 39 4 93 93 W 10 17 30.31 1026 9 14.48406 0 0
9:56 am 09:56 Cloudy 42 5.6 39 3.9 89 89 W 15 24 30.31 1027 10 16.0934 0 0
10:56 am 10:56 Cloudy 43 6.1 38 3.3 82 82 WNW 16 26 30.33 1027 10 16.0934 0 0
11:09 am 11:09 Mostly Cloudy 43 6 37 3 81 81 WNW 9 15 30.33 1027 10 16.0934 0 0
11:56 am 11:56 Cloudy 43 6.1 35 1.7 74 74 NW 13 20 30.32 1027 10 16.0934 0 0
12:56 pm 12:56 Mostly Cloudy 46 7.8 33 0.6 61 61 WNW 13 20 30.31 1026 10 16.0934 0 0
1:56 pm 13:56 Partly Cloudy 44 6.7 34 1.1 68 68 WNW 13 20 30.31 1026 10 16.0934 0 0
2:56 pm 14:56 Partly Cloudy 45 7.2 32 0 61 61 WNW 13 20 30.31 1026 10 16.0934 0 0
3:56 pm 15:56 Sunny 44 6.7 32 0 63 63 NW 10 17 30.31 1027 10 16.0934 0 0
4:56 pm 16:56 Sunny 42 5.6 32 0 68 68 WNW 7 11 30.33 1027 10 16.0934 0 0
5:56 pm 17:56 Clear 38 3.3 31 -0.6 76 76 NW 7 11 30.36 1028 10 16.0934 0 0
6:56 pm 18:56 Clear 36 2.2 31 -0.6 82 82 Calm 30.36 1028 10 16.0934 0 0
7:56 pm 19:56 Clear 36 2.2 31 -0.6 82 82 Calm 30.35 1028 10 16.0934 0 0
8:56 pm 20:56 Clear 34 1.1 32 0 92 92 Calm 30.37 1028 10 16.0934 0 0
9:56 pm 21:56 Clear 33 0.6 32 0 96 96 Calm 30.36 1028 10 16.0934 0 0
10:56 pm 22:56 Clear 32 0 32 0 100 100 ENE 3 6 30.35 1028 10 16.0934 0 0
11:56 pm 23:56 Clear 31 -0.6 31 -0.6 100 100 Calm 30.35 1028 10 16.0934 0 0

Powered by AerisWeather